Skip Page Navigation
NASA JPL Caltech
NASA Logo - Jet Propulsion Laboratory + View the NASA Portal
+ Center for Near-Earth Object Studies
JPL Home Earth Solar System Stars & Galaxies Technology
JPL Solar System Dynamics
BODIES ORBITS EPHEMERIDES TOOLS PHYSICAL DATA DISCOVERY FAQ SITE MAP
IMPORTANT: The SSD Announcement email list is now available. Major changes are coming in the near future, including possible hostname and/or URL changes. To be notified of such changes, subscribe to this email list.

Please visit this page for more details.


JPL Small-Body Database Browser
Search: [ help ]  
277104 (2005 FA13)
Classification: Main-belt Asteroid          SPK-ID: 2277104
Ephemeris | Orbit Diagram | Orbital Elements | Mission Design | Physical Parameters | Discovery Circumstances | Close-Approach Data ]

[ show orbit diagram ]
Orbital Elements at Epoch 2458600.5 (2019-Apr-27.0) TDB
Reference: JPL 20 (heliocentric ecliptic J2000)
 Element Value Uncertainty (1-sigma)   Units 
e .05025116861320163 5.0969e-08  
a 3.073921940013117 4.1801e-08 au
q 2.919453770301698 1.6685e-07 au
i 13.81925720201991 6.556e-06 deg
node 149.432275099123 2.5214e-05 deg
peri 337.3853220397164 7.6435e-05 deg
M 278.0721972862837 7.229e-05 deg
tp 2459048.488107846647
(2020-Jul-17.98810785)
0.0003981 TDB
period 1968.510242955557
5.39
4.0153e-05
1.099e-07
d
yr
n .1828794141601668 3.7303e-09 deg/d
Q 3.228390109724537 4.3901e-08 au
  Orbit Determination Parameters
   # obs. used (total)      332  
   data-arc span      9973 days (27.30 yr)  
   first obs. used      1991-10-16  
   last obs. used      2019-02-04  
   planetary ephem.      DE431  
   SB-pert. ephem.      SB431-N16  
   condition code      0  
   norm. resid. RMS      .59844  
   source      ORB  
   producer      Otto Matic  
   solution date      2019-Jul-14 11:04:44  

Additional Information
 Earth MOID = 1.93781 au 
 Jupiter MOID = 1.79464 au 
 T_jup = 3.184 
[ show covariance matrix ]

Ephemeris | Orbit Diagram | Orbital Elements | Mission Design | Physical Parameters | Discovery Circumstances | Close-Approach Data ]

Physical Parameter Table
Parameter Symbol Value Units Sigma Reference Notes
absolute magnitude H 15.2   n/a MPO455056  

277104 (2005 FA13)          Discovered 2005-Mar-18 by CSS at Catalina
Reference: 20110517/Numbers.arcLast Updated: 2011-05-20

[ show close-approach data ]
Ephemeris | Orbit Diagram | Orbital Elements | Mission Design | Physical Parameters | Discovery Circumstances | Close-Approach Data ]
ABOUT SSD CREDITS/AWARDS PRIVACY/COPYRIGHT GLOSSARY LINKS
FirstGov 2019-Dec-09 10:55 UT
(server date/time)  
NASA Home Page
Site Manager:   Ryan S. Park
Webmaster  Alan B. Chamberlin